Regional Weather Roundup
Issued by NWS

Home | Current Version | Previous Version | Text Only | Print | Product List | Glossary Off
Versions: 1 2 3 4 5 6 7 8 9 10 11 12 13 14 15 16 17 18 19 20 21 22 23 24 25 26 27 28 29 30 31 32 33 34 35 36 37 38 39 40 41 42 43 44 45 46 47 48 49 50

000
ASUS43 KMKX 200521
RWRWI

WISCONSIN REGIONAL WEATHER ROUNDUP
NATIONAL WEATHER SERVICE MILWAUKEE/SULLIVAN WI
1200 AM CDT SAT SEP 20 2014

NOTE: "FAIR" INDICATES FEW OR NO CLOUDS BELOW 12,000 FEET WITH NO
SIGNIFICANT WEATHER AND/OR OBSTRUCTIONS TO VISIBILITY.

WIZ001-002-006>008-014>016-023>028-200600-
NORTHWEST WISCONSIN

CITY           SKY/WX    TMP DP  RH WIND       PRES   REMARKS
SUPERIOR ARPT  CLOUDY    61  61  99 S3        29.60F FOG
ASHLAND        CLOUDY    66  61  84 SW9       29.63F
HAYWARD        CLOUDY    67  63  87 S7        29.65F
SIREN          CLEAR     62  61  97 S5        29.64F FOG
RICE LAKE      CLOUDY    67  63  86 S9        29.69F
LADYSMITH      PTCLDY    64  61  90 S6        29.71F
EAU CLAIRE     CLOUDY    68  62  81 S10       29.70F
MENOMONIE      PTCLDY    70  64  82 S13G20    29.69S
NEW RICHMOND   PTCLDY    69  67  93 S8        29.68R
OSCEOLA        CLEAR     69  68  98 S7        29.69R
$$

WIZ003>005-009-010-017-018-200600-
NORTH CENTRAL WISCONSIN

CITY           SKY/WX    TMP DP  RH WIND       PRES   REMARKS
WOODRUFF       CLOUDY    66  58  76 SW10G20   29.71F
RHINELANDER    CLOUDY    63  55  75 SW15      29.73F
EAGLE RIVER    CLOUDY    64  54  69 SW8       29.71F
LAND O LAKES   CLOUDY    65  56  72 SW7       29.71F
PHILLIPS       PTCLDY    63  59  85 SW8       29.69F
TOMAHAWK       CLOUDY    62  56  78 S3        29.72F
MEDFORD        CLOUDY    61  58  90 S9        29.72F
MERRILL        CLOUDY    63  57  80 SW8       29.74F
$$

WIZ029-030-035-036-043>047-200600-
CENTRAL WISCONSIN

CITY           SKY/WX    TMP DP  RH WIND       PRES   REMARKS
WAUSAU         CLOUDY    64  55  72 S13       29.73F
MOSINEE        TSTM      61  55  82 S13       29.77F
MARSHFIELD     CLOUDY    65  56  72 S13       29.75F
STEVENS POINT  CLOUDY    63  53  69 S9        29.77F
WAUPACA        CLOUDY    66  54  65 S7        29.79F
WAUTOMA        CLOUDY    65  54  67 S9        29.80F
WISC RAPIDS    CLOUDY    66  55  67 S16G22    29.77F
CAMP DOUGLAS   MOCLDY    67  59  73 S12G17    29.77F
$$

WIZ011>013-019>022-031-037>040-048>050-200600-
NORTHEAST WISCONSIN

CITY           SKY/WX    TMP DP  RH WIND       PRES   REMARKS
ANTIGO         LGT RAIN  60  55  84 SW10      29.76F
STURGEON BAY   CLOUDY    63  50  63 S16G23    29.78F
GREEN BAY      CLOUDY    65  53  65 S12G18    29.80F
MANITOWOC      CLOUDY    62  51  67 S7        29.84F
APPLETON       CLOUDY    63  52  67 S14       29.81F
CLINTONVILLE   CLOUDY    64  52  63 SW10      29.78F
OSHKOSH        MOCLDY    64  53  67 S12       29.82F
$$

WIZ032>034-041-042-053>061-200600-
SOUTHWEST WISCONSIN

CITY           SKY/WX    TMP DP  RH WIND       PRES   REMARKS
LA CROSSE      MOCLDY    70  60  70 S18       29.75F
SPARTA         MOCLDY    68  57  67 SW5       29.78F
VIROQUA        MOCLDY    65  58  77 SW14G20   29.81F
BOSCOBEL       CLEAR     68  57  68 SW10G18   29.83F
PRAIRIE DU CHI CLEAR     67  56  67 S5        29.82S
PLATTEVILLE    FAIR      64  56  73 SW9       29.88S
$$

WIZ056-057-062-063-064-067-068-200600-
SOUTH CENTRAL WISCONSIN

CITY           SKY/WX    TMP DP  RH WIND       PRES   REMARKS
BARABOO/DELLS  CLEAR     65  53  63 S10       29.81F
LONE ROCK      CLEAR     70  54  56 S6        29.84F
WATERTOWN      CLEAR     62  52  70 S5        29.87R
MADISON        CLEAR     67  54  63 S14G20    29.86S
MIDDLETON      FAIR      67  53  61 SW12      29.85S
MONROE         CLEAR     63  55  77 S18G24    29.87F
JANESVILLE     CLEAR     64  50  59 S10       29.89F
$$

WIZ051-052-058>065-066-070>072-200600-
SOUTHEAST WISCONSIN

CITY           SKY/WX    TMP DP  RH WIND       PRES   REMARKS
MILWAUKEE      MOCLDY    63  48  58 S14       29.88F
WAUKESHA       CLEAR     61  46  59 S8        29.89F
MILWAUKEE/TIMM CLEAR     63  45  51 S12       29.88F
RACINE         CLEAR     65  47  52 S15G22    29.91F
BURLINGTON     CLEAR     60  47  62 S13G21    29.89F
KENOSHA        CLEAR     64  49  57 SW12      29.91F
FOND DU LAC    PTCLDY    63  51  65 SW9       29.84S
SHEBOYGAN      MOCLDY    63  49  60 S15       29.85S
WEST BEND      PTCLDY    63  46  55 S7        29.86S
JUNEAU         CLEAR     62  52  69 S9        29.87S
$$

LSZ147-162-200600-
LAKE SUPERIOR

STATION/POSITION TIME  TEMP    WIND        PRES    WAVE
                       AIR SEA DIR/SP/G            HT/PER
                 (UTC) (F)     (DEG/KT/KT) (MB)    (FT/S)
W MID LAKE BUOY  0450   53 48  200/  8/  8 1002.8F   1/ 3
DEVILS ISLAND    0500   64     220/  8/  9 1002.8F
PORT WING        0400   62     200/  5/  8 1003.4F
SAXON HARBOR     0400   69     200/  6/ 10 1003.7F
$$

LMZ867-665-643>646-200600-
LAKE MICHIGAN

STATION/POSITION TIME  TEMP    WIND        PRES    WAVE
                       AIR SEA DIR/SP/G            HT/PER
                 (UTC) (F)     (DEG/KT/KT) (MB)    (FT/S)
N MID LAKE BUOY  0450   62 58  210/ 25/ 29 1008.1F   9/ 8
NORTHPORT PIER   0400   62     170/  7/ 15 1008.8R
SISTER BAY       0427          210/ 19/ 25   N/A
KEWAUNEE LAKESHO 0400                      1009.4F
SHEBOYGAN LAKESH 0500   61 55  190/ 13/ 14 1010.9F
PORT WASHINGTON  0440   65     220/  5/ 10 1011.9S
ATWATER BUOY     0500   63     190/ 14/ 17 1012.7F
MILWAUKEE LAKESH 0500   65     210/ 13/ 17   N/A
S MID LAKE BUOY  0450   66 64  190/ 21/ 25 1013.0F   4/ 4
KENOSHA   LAKESH 0400   66     190/  9/ 14 1012.9F
$$

TC  - TEMPERATURE IN CELSIUS
VSB - VISIBILITY IN STATUTE MILES
WCI - WIND CHILL INDEX
HX  - HEAT INDEX




USA.gov is the U.S. government's official web portal to all federal, state and local government web resources and services.